Location: Newark
(48.0000°N, 67.0000°E)
Time: 23:58:41
(UTC+00:00)

N. Korean satellite - Pass Details

Date: 27 January 2020
Orbit: 456 x 505 km, 97.2° (Epoch: 27 February)

Event Time Altitude Azimuth Distance (km) Brightness Sun altitude
Rises 00:09:08 0° 34° (NE) 2,547 10.7 -29.6°
Reaches altitude 10° 00:12:41 10° 72° (ENE) 1,673 10.2 -29.0°
Maximum altitude 00:13:43 11° 89° (E) 1,613 10.1 -28.8°
Drops below altitude 10° 00:14:46 10° 106° (ESE) 1,677 10.1 -28.7°
Sets 00:18:19 0° 143° (SE) 2,564 10.7 -28.1°
